Zurück zum Katalog

STARLINK-6314

AktivKommunikationVLEO
NORAD 56538·PAYLOAD·🇺🇸 United States

Gestartet May 14, 2023 von Cape Canaveral Space Force Station

Loading…

Nächste Überflüge (nächste 24 Stunden)

TLE

AktuellSource: CelesTrak SupGP

Epoche: Sep 15, 2026, 02:27 UTC

1 56538C 23065AM  26258.10256944 -.00028945  00000+0 -10487-2 0  2586
2 56538  43.0001 208.3963 0000613 259.0297 112.5290 15.27584587    15

Verfolge STARLINK-6314 in Echtzeit mit AllMySat

Download on the App Store